Time[GMT],air_temperature[C](-3m),wind_speed[m/s](-4m),wind_gust[m/s](-4m),wind_direction[degrees](-4m),visibility[m](-3m),barometric_pressure[millibars](-3m)
2005-07-19 13:00,16.6,5.0,5.5,180, 170,1013.30
2005-07-19 14:00,16.8,4.8,5.5,195, 396,1013.48
2005-07-19 15:00,16.6,4.4,4.9,184, 175,1013.36
2005-07-19 16:00,16.8,4.2,4.7,204, 172,1013.36
2005-07-19 17:00,16.5,3.5,4.2,200, 185,1012.94
2005-07-19 18:00,16.9,4.8,5.5,207, 194,1012.34
2005-07-19 19:00,16.8,4.6,5.1,190, 169,1011.44
2005-07-19 20:00,16.4,3.3,4.0,189, 289,1011.20
2005-07-19 21:00,16.3,3.0,3.6,163, 293,1010.60
2005-07-19 22:00,16.5,4.0,4.6,183, 360,1010.42
2005-07-19 23:00,16.8,4.5,5.1,197, 276,1010.18
2005-07-20 00:00,16.5,4.5,5.1,200, 348,1010.42
2005-07-20 01:00,16.2,4.6,5.1,203, 254,1010.96
2005-07-20 02:00,16.0,4.8,5.3,209, 293,1010.96
2005-07-20 03:00,15.8,5.0,5.6,210, 201,1010.54
2005-07-20 04:00,15.8,4.9,5.6,222, 138,1010.60
2005-07-20 05:00,15.4,4.4,5.1,220, 156,1010.42
2005-07-20 06:00,15.4,3.5,4.0,226, 150,1010.12
2005-07-20 07:00,15.4,4.8,5.9,207, 197,1009.46
2005-07-20 08:00,15.3,4.8,5.5,209, 173,1009.04
2005-07-20 09:00,15.4,4.7,5.4,218, 321,1009.16
2005-07-20 10:00,15.1,3.7,4.3,221, 279,1009.22
2005-07-20 11:00,15.0,3.5,4.1,220, 388,1009.22
2005-07-20 12:00,15.1,3.2,3.6,207, 346,1009.52
2005-07-20 13:00,14.9,2.5,2.9,209, 356,1009.82
2005-07-20 14:00,15.0,2.2,2.8,224, 123,1009.82
2005-07-20 15:00,15.1,2.2,2.5,237, 129,1009.58
2005-07-20 16:00,15.3,3.2,3.5,251,  90,1009.82
2005-07-20 17:00,15.5,3.3,3.9,261, 161,1009.40
2005-07-20 18:00,15.6,3.0,3.5,262, 439,1009.28
2005-07-20 19:00,15.7,2.9,3.6,279, 310,1009.22
2005-07-20 20:00,15.9,2.8,3.4,275, 208,1009.34
2005-07-20 21:00,15.8,3.7,4.4,275, 536,1009.28
2005-07-20 22:00,16.1,2.2,2.9,269,2361,1009.10
2005-07-20 23:00,16.8,2.5,2.9,220,2295,1009.10
2005-07-21 00:00,15.8,2.9,3.3,220,1878,1009.52
2005-07-21 01:00,,,,,,
2005-07-21 02:00,16.1,4.0,4.6,242,2100,1009.88
2005-07-21 03:00,15.8,2.9,3.2,265,2166,1010.06
2005-07-21 04:00,15.9,3.1,3.5,256,2221,1010.00
2005-07-21 05:00,16.0,3.5,3.9,253,2229,1009.94
2005-07-21 06:00,16.4,4.4,4.9,264,2300,1009.58
2005-07-21 07:00,16.3,5.1,5.7,269,2304,1009.52
2005-07-21 08:00,16.2,4.5,5.4,271,2337,1009.28
2005-07-21 09:00,15.9,3.6,4.2,281,2384,1009.34
2005-07-21 10:00,15.7,3.9,4.6,303,2403,1009.64
2005-07-21 11:00,16.4,3.0,3.6,330, 601,1010.00
2005-07-21 12:00,16.3,1.4,2.0,320,2675,1010.12
2005-07-21 13:00,16.1,1.7,2.1,288,2797,1010.06
2005-07-21 14:00,16.5,2.3,2.9,277,2901,1010.30
2005-07-21 15:00,16.6,2.6,3.2,269,2762,1010.42
2005-07-21 16:00,16.6,3.6,5.5,281,2842,1010.36
2005-07-21 17:00,16.3,4.3,5.3,286,2718,1010.36
2005-07-21 18:00,16.4,3.9,4.7,301,2814,1010.24
2005-07-21 19:00,16.5,3.4,3.9,304,2892,1009.82
2005-07-21 20:00,16.7,2.8,3.5,290,2924,1009.88
2005-07-21 21:00,17.0,2.5,3.3,286,2947,1009.94
2005-07-21 22:00,17.8,2.0,2.4,262,2951,1010.06
2005-07-21 23:00,17.2,2.5,2.9,258,2895,1010.00
2005-07-22 00:00,16.8,1.9,2.5,256,2875,1010.30
2005-07-22 01:00,16.9,2.0,2.4,243,2880,1010.42
2005-07-22 02:00,16.1,2.3,2.8,220,2841,1010.66
2005-07-22 03:00,16.0,2.8,3.2,218,2815,1010.66
2005-07-22 04:00,15.9,3.4,3.9,218,2771,1010.30
2005-07-22 05:00,15.6,4.1,4.5,220,2802,1010.36
2005-07-22 06:00,15.5,3.7,4.2,243,2852,1010.30
2005-07-22 07:00,15.5,3.2,3.7,248,2880,1010.06
2005-07-22 08:00,15.6,3.0,3.4,247,2846,1010.36
2005-07-22 09:00,15.7,3.5,3.9,242,2889,1010.66
2005-07-22 10:00,15.9,3.2,3.7,228,2154,1010.72
2005-07-22 11:00,16.1,2.9,3.4,227,2900,1010.84
2005-07-22 12:00,17.9,2.3,2.7,216,2831,1011.26
2005-07-22 13:00,17.2,2.0,2.4,199,2928,1011.38
2005-07-22 14:00,16.5,2.1,2.4,193,2944,1011.38
2005-07-22 15:00,16.3,3.3,3.6,193,2904,1011.38
2005-07-22 16:00,16.4,3.8,4.3,195,2871,1011.08
2005-07-22 17:00,16.6,4.6,5.5,204,2825,1010.90
2005-07-22 18:00,,,,,,
2005-07-22 19:00,16.6,4.5,5.0,222,2840,1010.96
2005-07-22 20:00,16.5,5.5,6.3,218,2712,1010.72
2005-07-22 21:00,15.9,5.3,6.1,228, 331,1010.66
2005-07-22 22:00,15.7,5.5,6.5,224, 235,1010.48
2005-07-22 23:00,16.1,4.9,6.1,224, 105,1010.12
2005-07-23 00:00,15.8,4.9,5.7,212, 442,1009.94
2005-07-23 01:00,,,,,,
2005-07-23 02:00,15.4,3.3,3.9,210, 188,1010.24
2005-07-23 03:00,15.4,4.5,5.6,189, 167,1010.24
2005-07-23 04:00,15.1,4.0,4.9,202,  90,1009.88
2005-07-23 05:00,15.3,4.1,4.6,202, 136,1009.34
2005-07-23 06:00,15.3,3.3,3.8,212,  80,1009.40
2005-07-23 07:00,15.4,3.3,3.7,220, 212,1009.34
2005-07-23 08:00,15.4,2.3,2.7,222, 152,1008.80
2005-07-23 09:00,15.8,2.3,2.7,184, 180,1008.38
2005-07-23 10:00,15.8,1.1,1.7,170, 103,1008.26
2005-07-23 11:00,15.8,2.8,3.5,201, 146,1008.68
2005-07-23 12:00,15.9,2.6,3.1,239,1096,1008.68
2005-07-23 13:00,16.6,1.3,2.3,198,2324,1008.62
2005-07-23 14:00,18.0,1.9,2.2,254,2838,1008.26
2005-07-23 15:00,17.0,1.9,2.4,188,2412,1008.14
2005-07-23 16:00,17.3,4.5,5.3,291,2683,1008.32
2005-07-23 17:00,15.8,5.8,7.1,349,2688,1008.08
2005-07-23 18:00,15.4,6.4,8.0,330,2750,1008.44
2005-07-23 19:00,15.2,6.1,7.2,322,2546,1008.68
2005-07-23 20:00,15.1,5.3,6.2,325,2594,1008.86
2005-07-23 21:00,15.8,4.9,6.2,322,2706,1008.62
2005-07-23 22:00,15.8,6.3,7.7,320,2778,1008.56
2005-07-23 23:00,15.6,6.6,7.6,314,2784,1008.80
2005-07-24 00:00,15.7,6.8,7.9,319,2807,1009.16
2005-07-24 01:00,15.9,7.1,8.3,314,2863,1009.40
2005-07-24 02:00,15.9,4.5,5.6,313,2895,1009.46
2005-07-24 03:00,15.8,5.7,7.4,300,2873,1009.58
2005-07-24 04:00,15.8,4.0,4.9,293,2871,1009.70
2005-07-24 05:00,15.9,5.1,5.9,282,2897,1009.70
2005-07-24 06:00,15.6,4.1,4.7,267,2880,1009.46
2005-07-24 07:00,15.8,6.0,7.2,270,2918,1009.28
2005-07-24 08:00,15.6,4.1,5.7,313,2941,1009.34
2005-07-24 09:00,15.5,5.9,6.7,318,2913,1009.70
2005-07-24 10:00,15.3,8.0,9.1,329,2868,1010.06
2005-07-24 11:00,15.3,7.3,9.3,310,2915,1010.06
2005-07-24 12:00,14.9,8.1,9.7,312,2869,1010.78
2005-07-24 13:00,14.6,7.9,9.8,322,2816,1011.08
2005-07-24 14:00,14.5,7.6,9.2,314,2659,1010.90
2005-07-24 15:00,14.3,7.3,8.7,302,2539,1011.32
2005-07-24 16:00,14.4,7.0,8.9,309,2826,1011.32
2005-07-24 17:00,14.3,7.5,9.1,303,2638,1011.32
2005-07-24 18:00,14.4,7.5,8.7,297,2780,1011.56
2005-07-24 19:00,14.8,6.7,8.0,294,2872,1011.74
2005-07-24 20:00,14.9,6.6,7.7,288,2870,1011.86
2005-07-24 21:00,15.2,6.8,7.9,282,2911,1012.22
2005-07-24 22:00,15.4,6.5,7.5,283,2925,1012.40
2005-07-24 23:00,15.2,6.4,7.2,276,2849,1012.64
2005-07-25 00:00,15.1,5.9,7.0,269,2838,1012.88
2005-07-25 01:00,14.9,4.6,5.6,271,2862,1013.00
2005-07-25 02:00,14.9,3.5,4.2,276,2904,1012.94
2005-07-25 03:00,15.2,3.9,4.5,259,2914,1013.00
2005-07-25 04:00,15.6,4.5,5.3,272,2922,1013.30
2005-07-25 05:00,15.1,2.8,3.3,237,2916,1012.52
2005-07-25 06:00,15.2,4.5,5.2,233,2921,1013.12
2005-07-25 07:00,15.2,6.1,7.0,247,2907,1012.94
2005-07-25 08:00,14.9,5.5,6.2,240,2894,1012.76
2005-07-25 09:00,14.8,5.9,6.7,234,2906,1012.70
2005-07-25 10:00,15.2,6.6,7.4,237,2925,1012.76
2005-07-25 11:00,15.2,5.7,6.6,229,2945,1012.58
2005-07-25 12:00,,,,,,
2005-07-25 13:00,15.5,6.9,8.2,215,2704,1012.10
2005-07-25 14:00,15.6,6.9,8.1,206,2916,1011.68
2005-07-25 15:00,15.8,6.8,8.0,193,2816,1011.32
2005-07-25 16:00,16.6,8.4,9.6,198,2828,1010.84
2005-07-25 17:00,16.6,9.2,10.6,200,2827,1010.30
2005-07-25 18:00,16.6,9.4,10.8,199,2776,1009.76
2005-07-25 19:00,16.8,9.7,11.7,204,2632,1009.10
2005-07-25 20:00,16.8,10.5,11.8,209,2694,1008.50
2005-07-25 21:00,16.9,9.9,11.3,207,2631,1007.90
2005-07-25 22:00,16.7,7.3,9.3,226,2275,1008.98
2005-07-25 23:00,17.0,8.2,9.8,199,2547,1008.20
2005-07-26 00:00,17.0,6.7,8.9,196,2718,1008.86
2005-07-26 01:00,16.6,8.1,9.6,199,2636,1008.56
2005-07-26 02:00,16.4,8.6,10.1,209,2396,1008.68
2005-07-26 03:00,16.2,8.2,10.2,212,2520,1008.62
2005-07-26 04:00,16.1,7.4,8.8,219,2599,1008.86
2005-07-26 05:00,15.8,6.9,8.2,228,2561,1008.86
2005-07-26 06:00,15.5,6.4,7.3,233,2451,1008.56
2005-07-26 07:00,15.0,5.5,6.3,236,2386,1008.80
2005-07-26 08:00,14.8,4.8,6.2,240,2321,1008.92
2005-07-26 09:00,14.4,4.6,5.2,232, 319,1008.98
2005-07-26 10:00,14.2,4.5,5.3,242, 281,1009.40
2005-07-26 11:00,14.2,4.6,5.2,229, 263,1010.12
2005-07-26 12:00,14.2,4.8,5.7,222, 215,1010.54
2005-07-26 13:00,14.3,5.3,6.0,213, 437,1010.48
2005-07-26 14:00,14.5,5.3,6.2,219, 383,1010.66
2005-07-26 15:00,14.7,4.1,5.2,233, 231,1010.84
2005-07-26 16:00,14.9,5.1,5.6,202, 380,1010.54
2005-07-26 17:00,15.1,5.7,6.8,212, 580,1010.36
2005-07-26 18:00,15.3,5.4,6.3,215, 440,1010.54
2005-07-26 19:00,15.6,5.0,6.0,220, 310,1010.48
2005-07-26 20:00,15.6,4.8,5.5,220, 173,1010.54
2005-07-26 21:00,15.8,4.5,5.3,217, 133,1010.48
2005-07-26 22:00,15.4,4.7,5.4,213, 235,1010.66
2005-07-26 23:00,15.8,4.7,5.4,212, 188,1010.60
2005-07-27 00:00,16.0,4.8,5.4,201,  92,1009.88
2005-07-27 01:00,15.8,4.5,5.5,209, 179,1010.60
2005-07-27 02:00,15.8,6.5,7.4,196, 423,1010.24
2005-07-27 03:00,15.8,5.2,6.2,206, 394,1010.90
2005-07-27 04:00,15.9,6.5,7.5,189, 550,1010.36
2005-07-27 05:00,16.3,6.8,7.8,196, 424,1010.24
2005-07-27 06:00,16.3,6.2,7.3,201, 391,1010.54
2005-07-27 07:00,16.1,6.7,8.0,204, 185,1010.36
2005-07-27 08:00,16.2,7.4,8.4,205, 245,1010.00
2005-07-27 09:00,16.3,7.1,8.0,206, 704,1009.70
2005-07-27 10:00,16.3,7.1,8.2,206, 829,1009.76
2005-07-27 11:00,16.5,7.7,8.4,202, 421,1009.88
2005-07-27 12:00,16.5,7.5,8.6,202, 316,1010.36
2005-07-27 13:00,16.7,7.8,9.0,203, 248,1009.94
2005-07-27 14:00,16.6,6.8,7.9,206, 258,1009.76
2005-07-27 15:00,16.9,8.1,9.2,206,2238,1009.70
2005-07-27 16:00,16.8,7.6,8.8,202, 407,1009.76
2005-07-27 17:00,16.9,7.6,8.7,200, 663,1009.28
2005-07-27 18:00,17.0,7.9,9.1,199, 801,1008.74
2005-07-27 19:00,16.9,7.4,8.7,200,1032,1008.62
2005-07-27 20:00,17.1,7.8,8.9,197,2578,1008.62
2005-07-27 21:00,17.2,7.4,8.5,201,2188,1008.38
2005-07-27 22:00,17.4,8.0,9.2,200, 240,1007.90
2005-07-27 23:00,17.0,6.5,7.3,208, 321,1008.56
2005-07-28 00:00,16.5,6.5,7.5,208, 258,1009.16
2005-07-28 01:00,16.7,7.7,8.9,201, 517,1009.34
2005-07-28 02:00,16.4,6.6,7.5,204, 352,1010.00
2005-07-28 03:00,16.4,6.1,7.1,206, 439,1010.00
2005-07-28 04:00,16.4,6.4,7.4,199, 823,1009.82
2005-07-28 05:00,16.3,7.3,8.8,191, 661,1009.40
2005-07-28 06:00,,,,,,
2005-07-28 07:00,16.6,5.5,6.5,207, 375,1009.58
2005-07-28 08:00,16.9,7.1,8.1,204, 657,1009.64
2005-07-28 09:00,16.4,6.1,6.8,225,1120,1010.66
2005-07-28 10:00,16.1,4.9,5.5,237, 380,1011.50
2005-07-28 11:00,15.5,4.1,4.9,235, 240,1012.22
2005-07-28 12:00,15.2,3.1,3.5,238, 289,1012.76
2005-07-28 13:00,14.7,3.2,4.2,328, 737,1013.24
2005-07-28 14:00,14.3,2.8,3.4,356,1918,1013.72
2005-07-28 15:00,14.0,5.1,6.3,355,2019,1013.90
2005-07-28 16:00,13.7,4.2,4.9, 12,1644,1014.26
2005-07-28 17:00,13.8,3.5,4.3, 21,1841,1014.38
2005-07-28 18:00,14.1,2.7,3.3, 54,1967,1014.32
2005-07-28 19:00,14.2,2.9,3.7, 37,1925,1014.02
2005-07-28 20:00,13.9,4.1,5.4, 19,1731,1014.14
2005-07-28 21:00,14.7,2.8,3.6, 56,1258,1014.14
2005-07-28 22:00,15.0,2.1,2.7, 57, 339,1014.08
2005-07-28 23:00,15.2,3.1,3.7, 61, 819,1013.78
2005-07-29 00:00,15.2,2.0,2.8, 51, 289,1013.90
2005-07-29 01:00,15.3,2.1,2.8, 46, 206,1014.14
2005-07-29 02:00,15.2,2.7,3.3, 76, 211,1013.96
2005-07-29 03:00,15.3,2.4,3.2,357, 201,1013.36
2005-07-29 04:00,15.0,4.0,5.0,  4, 191,1013.12
2005-07-29 05:00,14.9,2.9,4.0, 31, 176,1012.58
2005-07-29 06:00,15.0,2.6,3.8, 19, 190,1011.98
2005-07-29 07:00,14.2,5.4,6.7,339, 338,1011.44
2005-07-29 08:00,13.9,5.6,7.1, 18, 309,1011.50
2005-07-29 09:00,13.8,6.5,8.0,349, 826,1012.16
2005-07-29 10:00,14.0,6.4,8.4,357, 559,1012.76
2005-07-29 11:00,14.1,6.7,8.6,347, 952,1013.12
2005-07-29 12:00,14.4,6.9,8.8,332,1705,1013.66
2005-07-29 13:00,14.0,6.4,7.8,334,1201,1013.90
2005-07-29 14:00,13.7,6.2,7.4,329, 809,1014.68
2005-07-29 15:00,14.0,6.6,8.5,320,2870,1015.04
2005-07-29 16:00,14.2,5.9,7.2,323,2900,1015.40
2005-07-29 17:00,14.4,6.3,8.4,308,2905,1015.88
2005-07-29 18:00,14.9,5.8,7.3,306,2944,1015.82
2005-07-29 19:00,15.2,4.8,5.9,284,2937,1016.12
2005-07-29 20:00,15.8,4.8,6.1,278,2928,1016.12
2005-07-29 21:00,16.1,3.9,4.6,278,2939,1016.60
2005-07-29 22:00,16.2,4.3,4.9,265,2107,1017.02
2005-07-29 23:00,15.9,4.7,5.6,260,2922,1017.38
2005-07-30 00:00,16.0,5.3,6.3,251,2945,1017.62
2005-07-30 01:00,,,,,,
2005-07-30 02:00,15.9,5.3,6.5,244,2930,1018.04
2005-07-30 03:00,15.8,5.4,6.3,258,2912,1018.22
2005-07-30 04:00,15.7,4.9,5.9,258,2913,1018.22
2005-07-30 05:00,15.5,4.7,5.4,241,2855,1018.76
2005-07-30 06:00,15.5,4.3,5.2,264,2837,1018.40
2005-07-30 07:00,15.6,3.0,3.6,261,2804,1018.34
2005-07-30 08:00,15.9,2.7,3.3,259,2778,1018.76
2005-07-30 09:00,15.6,2.6,3.3,237,2664,1019.24
2005-07-30 10:00,16.0,3.4,4.1,291,2816,1019.48
2005-07-30 11:00,15.8,2.1,3.0,306,2853,1020.32
2005-07-30 12:00,16.1,2.3,2.9,330,2895,1020.68
2005-07-30 13:00,15.6,1.6,2.1,330,2913,1020.98
2005-07-30 14:00,16.4,1.0,1.3,  3,2900,1021.04
2005-07-30 15:00,15.7,2.4,2.9,341,2903,1021.64
2005-07-30 16:00,16.1,2.1,2.6,330,2910,1021.40
2005-07-30 17:00,16.0,2.4,3.1,342,2935,1021.34
2005-07-30 18:00,15.7,3.3,4.1,  6,2916,1021.70
2005-07-30 19:00,16.1,3.3,4.1, 12,2921,1021.46
2005-07-30 20:00,16.0,1.4,2.5, 10,2926,1021.58
2005-07-30 21:00,16.1,0.6,1.3, 11,2942,1021.76
2005-07-30 22:00,16.1,1.0,1.3,351,2945,1021.82
2005-07-30 23:00,15.8,0.9,1.3,358,2937,1022.30
2005-07-31 00:00,,,,,,
2005-07-31 01:00,15.6,1.5,1.8,185,2889,1022.72
2005-07-31 02:00,15.5,0.0,0.7,,2926,1022.66
2005-07-31 03:00,15.7,0.2,0.4,258,2917,1022.60
2005-07-31 04:00,15.7,0.0,0.1,,2916,1022.84
2005-07-31 05:00,15.8,2.3,2.7,360,2922,1023.08
2005-07-31 06:00,15.5,0.0,1.1,,2921,1023.14
2005-07-31 07:00,15.7,0.8,1.1,302,2942,1023.08
2005-07-31 08:00,15.4,0.8,1.6,354,2934,1023.20
2005-07-31 09:00,15.4,1.8,2.2, 40,2953,1023.32
2005-07-31 10:00,16.0,1.1,1.5, 34,2951,1023.56
2005-07-31 11:00,16.8,1.6,2.0, 34,2953,1023.80
2005-07-31 12:00,16.3,1.1,1.7,340,2959,1024.40
2005-07-31 13:00,17.2,0.8,1.2,105,2960,1024.28
2005-07-31 14:00,16.8,1.2,1.6,116,2959,1024.10
2005-07-31 15:00,17.6,0.5,0.7, 90,2959,1024.28
2005-07-31 16:00,17.6,1.4,1.9, 26,2953,1024.10
2005-07-31 17:00,17.1,2.7,3.1, 18,2954,1023.80
2005-07-31 18:00,17.0,2.4,3.0, 33,2956,1023.44
2005-07-31 19:00,17.0,2.8,3.1, 36,2957,1023.14
2005-07-31 20:00,17.5,1.4,2.3, 58,2953,1023.02
2005-07-31 21:00,18.0,1.6,1.9, 64,2951,1023.32
2005-07-31 22:00,17.8,1.6,1.9, 75,2957,1023.44
2005-07-31 23:00,17.7,2.5,2.8, 99,2958,1023.20
2005-08-01 00:00,17.3,2.7,3.1,112,2952,1022.96
2005-08-01 01:00,16.8,1.9,2.4,116,2955,1023.02
2005-08-01 02:00,16.7,2.6,3.0,126,2956,1022.78
2005-08-01 03:00,16.6,2.2,2.6,113,2956,1022.48
2005-08-01 04:00,16.6,1.8,2.2, 98,2949,1022.48
2005-08-01 05:00,16.7,2.5,3.0, 92,2958,1022.00
2005-08-01 06:00,16.9,3.8,4.7, 96,2953,1021.28
2005-08-01 07:00,16.8,4.1,4.7, 96,2957,1020.86
2005-08-01 08:00,16.9,4.0,4.7, 97,2951,1020.38
2005-08-01 09:00,16.8,5.1,5.9,113,2953,1020.26
2005-08-01 10:00,16.9,3.6,4.1, 86,2950,1020.56
2005-08-01 11:00,16.6,4.2,4.6, 94,2941,1020.44
2005-08-01 12:00,16.7,3.2,3.8,102,2942,1019.90
2005-08-01 13:00,17.5,1.7,2.4, 56,2960,1020.02
2005-08-01 14:00,17.0,2.0,2.3, 66,2954,1020.14
2005-08-01 15:00,17.7,3.0,3.5, 86,2956,1019.54
2005-08-01 16:00,17.4,2.7,3.3, 82,2945,1019.30
2005-08-01 17:00,17.2,2.2,2.7, 53,2942,1019.06
2005-08-01 18:00,17.4,3.2,3.5, 14,2946,1018.64
2005-08-01 19:00,17.6,3.2,3.8, 84,2931,1017.80
2005-08-01 20:00,17.7,2.6,3.2, 85,2915,1017.08
2005-08-01 21:00,17.7,2.2,2.5, 58,2956,1016.54
2005-08-01 22:00,17.8,1.9,2.4, 84,2956,1016.06
2005-08-01 23:00,17.5,2.4,2.7, 84,2953,1015.70
2005-08-02 00:00,17.3,2.2,2.5, 96,2931,1015.70
2005-08-02 01:00,17.0,2.2,2.5,114,2915,1015.82
2005-08-02 02:00,16.9,2.1,2.5,120,2888,1015.64
2005-08-02 03:00,16.9,2.3,2.7,142,2879,1015.16
2005-08-02 04:00,16.6,1.0,1.6,197,2826,1014.86
2005-08-02 05:00,16.5,1.7,2.1,181, 131,1014.44
2005-08-02 06:00,16.1,1.8,2.2,206, 169,1013.66
2005-08-02 07:00,16.0,2.3,2.7,189, 827,1013.18
2005-08-02 08:00,16.2,3.0,3.5,197, 303,1012.76
2005-08-02 09:00,16.3,2.3,2.8,225,2519,1013.24
2005-08-02 10:00,,,,,,
2005-08-02 11:00,16.1,3.8,4.6,193, 986,1013.06
2005-08-02 12:00,16.0,5.5,6.4,198, 897,1012.88
2005-08-02 13:00,16.1,4.1,5.0,217,2903,1013.06
2005-08-02 14:00,16.8,5.1,6.2,221,2942,1012.88
2005-08-02 15:00,16.8,4.9,5.8,214,2940,1012.58
2005-08-02 16:00,16.7,5.0,5.9,212,2930,1012.10
2005-08-02 17:00,17.1,5.4,6.8,224,2874,1011.80
2005-08-02 18:00,,,,,,
2005-08-02 19:00,17.1,5.2,6.3,232,2697,1010.54
2005-08-02 20:00,17.1,5.7,6.9,223,2497,1009.82
2005-08-02 21:00,16.5,5.1,5.9,230, 443,1010.18
2005-08-02 22:00,16.4,4.3,5.1,237, 299,1010.42
2005-08-02 23:00,16.2,5.1,6.2,220, 229,1010.00
2005-08-03 00:00,16.1,4.3,5.5,249, 299,1010.36
2005-08-03 01:00,15.9,3.7,4.5,232, 235,1010.48
2005-08-03 02:00,16.0,4.5,5.4,216, 151,1010.78
2005-08-03 03:00,15.6,4.8,5.8,226, 139,1010.60
2005-08-03 04:00,15.4,3.8,4.4,225, 180,1010.54
2005-08-03 05:00,15.9,4.3,6.6,227,2414,1010.00
2005-08-03 06:00,16.1,5.4,6.4,227,2168,1009.40
2005-08-03 07:00,16.5,5.8,7.1,236,1424,1008.74
2005-08-03 08:00,16.6,4.8,5.7,234,2366,1008.68
2005-08-03 09:00,16.9,4.8,6.0,225,2410,1008.38
2005-08-03 10:00,16.8,4.2,4.9,233,2396,1008.80
2005-08-03 11:00,17.2,3.6,4.1,262,1989,1009.04
2005-08-03 12:00,17.6,3.2,3.8,269,2259,1009.34
2005-08-03 13:00,17.7,3.2,4.2,281,2706,1010.06
2005-08-03 14:00,17.6,3.7,4.4,296,2930,1010.54
2005-08-03 15:00,16.8,3.0,4.2,296,2885,1010.54
2005-08-03 16:00,16.6,3.8,5.3,296,2912,1010.42
2005-08-03 17:00,16.8,4.2,4.8,306,2918,1010.12
2005-08-03 18:00,16.9,4.0,4.7,294,2944,1010.36
2005-08-03 19:00,17.2,4.3,5.0,305,2957,1010.30
2005-08-03 20:00,17.5,3.5,4.3,290,2959,1010.30
2005-08-03 21:00,17.9,3.4,4.4,270,2956,1010.72
2005-08-03 22:00,17.8,4.0,4.9,276,2958,1011.20
2005-08-03 23:00,17.4,3.3,4.2,282,2959,1011.68
2005-08-04 00:00,17.0,2.8,3.3,248,2920,1011.98
2005-08-04 01:00,17.2,3.2,4.1,264,2945,1012.52
2005-08-04 02:00,16.6,2.0,2.8,282,2942,1013.00
2005-08-04 03:00,16.8,3.2,3.8,286,2956,1013.42
2005-08-04 04:00,17.0,3.8,4.6,296,2955,1013.84
2005-08-04 05:00,16.6,5.3,6.2,321,2948,1014.02
2005-08-04 06:00,16.5,4.4,5.0,322,2944,1014.14
2005-08-04 07:00,16.7,3.8,4.4,340,2949,1014.02
2005-08-04 08:00,16.1,4.6,5.6,355,2957,1014.20
2005-08-04 09:00,16.1,4.2,5.1,355,2951,1014.62
2005-08-04 10:00,16.1,4.5,5.2,346,2591,1015.10
2005-08-04 11:00,16.1,5.0,6.2,358, 622,1015.34
2005-08-04 12:00,16.2,4.5,5.2,352,2931,1015.88
2005-08-04 13:00,16.1,4.4,5.3,353,2941,1016.30
2005-08-04 14:00,16.0,3.1,3.6,348,2947,1016.30
2005-08-04 15:00,16.0,3.0,3.5,335,2958,1016.72
2005-08-04 16:00,15.8,2.8,3.5,313,2952,1016.60
2005-08-04 17:00,15.9,3.0,3.6,330,2950,1016.90
2005-08-04 18:00,15.9,3.5,4.4,321,2957,1016.78
2005-08-04 19:00,16.2,2.7,3.1,320,2960,1016.60
2005-08-04 20:00,16.8,1.8,2.3,317,2950,1016.84
2005-08-04 21:00,17.0,3.0,3.4,286,2959,1017.14
2005-08-04 22:00,17.3,2.7,3.4,273,2953,1017.26
2005-08-04 23:00,17.5,1.4,2.5,273,2960,1017.32
2005-08-05 00:00,16.7,1.7,2.1,252,2957,1017.38
2005-08-05 01:00,16.2,1.6,2.5,234,2956,1017.92
2005-08-05 02:00,15.8,1.7,2.1,255,2948,1017.80
2005-08-05 03:00,15.7,0.9,1.6,245,2937,1017.80
2005-08-05 04:00,15.6,0.6,0.8,222,2945,1017.80
2005-08-05 05:00,15.7,1.7,2.0,208,2943,1017.80
2005-08-05 06:00,16.0,2.0,2.2,205,2941,1017.68
2005-08-05 07:00,16.3,2.7,3.1,198,2947,1017.74
2005-08-05 08:00,16.3,2.9,3.3,178,2942,1017.44
2005-08-05 09:00,16.5,3.6,4.3,179,2955,1017.56
2005-08-05 10:00,16.7,3.7,4.3,182,2957,1017.80
2005-08-05 11:00,17.3,4.8,5.5,179,1194,1017.74
2005-08-05 12:00,17.2,4.9,5.6,187,2959,1018.16
2005-08-05 13:00,17.3,5.0,5.6,183,2960,1017.80
2005-08-05 14:00,17.8,6.0,6.7,182,2957,1017.62
2005-08-05 15:00,18.0,6.9,8.0,178,2944,1017.02
2005-08-05 16:00,18.2,7.4,8.5,180,2960,1016.30
2005-08-05 17:00,18.3,6.8,8.0,182,2947,1015.94
2005-08-05 18:00,18.5,7.6,8.6,181,2950,1015.34
2005-08-05 19:00,18.5,8.4,9.6,184,2951,1014.74
2005-08-05 20:00,18.5,8.5,9.8,185,2859,1014.38
2005-08-05 21:00,18.5,8.6,9.8,180,2901,1014.02
2005-08-05 22:00,18.2,8.5,9.8,183,2821,1013.54
2005-08-05 23:00,18.4,8.3,9.8,184,2797,1013.78
2005-08-06 00:00,18.1,8.5,10.0,180,2745,1013.84
2005-08-06 01:00,18.5,9.2,10.6,184,2680,1014.14
2005-08-06 02:00,18.5,9.3,11.1,192,1375,1013.78
2005-08-06 03:00,17.9,7.9,9.7,202, 374,1013.66
2005-08-06 04:00,17.6,6.9,7.7,209, 189,1013.36
2005-08-06 05:00,17.5,7.8,9.4,223, 225,1013.36
2005-08-06 06:00,17.2,8.7,10.3,237, 183,1013.66
2005-08-06 07:00,16.5,7.1,8.3,246, 200,1013.60
2005-08-06 08:00,16.4,6.2,7.1,252, 667,1013.42
2005-08-06 09:00,16.5,4.5,5.3,253,1366,1013.66
2005-08-06 10:00,16.5,4.4,5.1,260,1403,1014.20
2005-08-06 11:00,16.5,2.8,3.6,280,1735,1014.68
2005-08-06 12:00,16.9,3.1,3.7,295,2058,1015.16
2005-08-06 13:00,16.9,3.2,4.0,312,2205,1015.46
2005-08-06 14:00,16.9,4.0,4.8,322,2473,1015.64
2005-08-06 15:00,16.5,3.3,4.4,326,2669,1015.94
2005-08-06 16:00,16.2,3.0,3.8,322,2707,1015.76
2005-08-06 17:00,16.3,3.2,4.4,322,2873,1015.76
2005-08-06 18:00,15.7,4.8,5.5,337,2824,1015.64
2005-08-06 19:00,15.9,3.8,4.7,318,2921,1016.24
2005-08-06 20:00,15.9,3.2,3.9,318,2920,1016.48
2005-08-06 21:00,15.9,5.3,6.6,328,2933,1016.78
2005-08-06 22:00,16.3,4.6,5.5,342,2948,1016.66
2005-08-06 23:00,16.8,3.9,5.1,343,2951,1016.96
2005-08-07 00:00,16.5,4.3,5.1,335,2953,1017.32
2005-08-07 01:00,16.6,4.0,4.6,331,2956,1017.92
2005-08-07 02:00,16.2,3.8,4.4,330,2954,1017.86
2005-08-07 03:00,16.1,2.0,2.9,338,2953,1018.10
2005-08-07 04:00,16.0,2.8,3.5,331,2951,1018.34
2005-08-07 05:00,16.1,3.0,3.6,321,2949,1018.28
2005-08-07 06:00,16.0,3.8,4.5,326,2952,1018.22
2005-08-07 07:00,15.9,3.5,4.2,339,2953,1018.40
2005-08-07 08:00,15.9,4.3,4.9,326,2955,1018.58
2005-08-07 09:00,15.9,4.5,5.2,338,2939,1018.94
2005-08-07 10:00,15.6,4.0,4.7,342,2935,1019.30
2005-08-07 11:00,15.8,3.7,4.4,336,2948,1019.54
2005-08-07 12:00,16.3,3.0,3.8,332,2753,1019.90
2005-08-07 13:00,16.1,2.0,2.7,332,2879,1020.08
2005-08-07 14:00,16.0,1.9,2.5,308,2959,1020.08
2005-08-07 15:00,16.2,3.0,3.7,300,2945,1019.96
2005-08-07 16:00,16.1,2.5,3.4,337,2941,1019.66
2005-08-07 17:00,17.0,1.9,2.4,312,2960,1019.54
2005-08-07 18:00,17.5,0.9,1.4,359,2957,1019.48
2005-08-07 19:00,17.1,1.8,2.3,321,2960,1019.42
2005-08-07 20:00,17.8,1.3,1.7,304,2960,1019.30
2005-08-07 21:00,17.8,2.3,2.7,318,2960,1019.06
2005-08-07 22:00,18.0,2.6,3.1,330,2959,1018.76
2005-08-07 23:00,17.9,0.7,1.8,  7,2960,1018.82
2005-08-08 00:00,16.4,0.4,0.8,118,2945,1018.94
2005-08-08 01:00,16.3,1.1,1.3,162,2948,1019.24
2005-08-08 02:00,16.0,1.0,1.3,191,2942,1019.06
2005-08-08 03:00,15.7,0.9,1.1,190,2942,1019.06
2005-08-08 04:00,15.4,1.8,2.0,218,2941,1019.24
2005-08-08 05:00,15.6,1.8,2.2,221,2937,1019.12
2005-08-08 06:00,,,,,,
2005-08-08 07:00,15.9,2.6,2.9,219,2946,1019.30
2005-08-08 08:00,16.1,2.6,2.9,219,2953,1019.36
2005-08-08 09:00,16.2,2.8,3.3,215,2956,1019.48
2005-08-08 10:00,16.3,3.1,3.5,215,2945,1019.54
2005-08-08 11:00,16.4,2.9,3.1,208,2954,1019.42
2005-08-08 12:00,16.1,3.1,3.5,204,2953,1019.48
2005-08-08 13:00,17.1,3.1,3.6,188,2935,1019.66
2005-08-08 14:00,16.9,4.2,4.8,196,2923,1019.78
2005-08-08 15:00,17.0,4.3,5.1,198,2945,1019.78
2005-08-08 16:00,17.0,4.8,5.4,208,2956,1019.78
2005-08-08 17:00,16.9,4.0,4.8,214,2948,1019.72
2005-08-08 18:00,17.3,4.7,5.2,225,2951,1019.54
2005-08-08 19:00,17.2,4.0,4.5,223,2937,1019.54
2005-08-08 20:00,17.3,4.4,5.1,231,2931,1019.36
2005-08-08 21:00,17.2,3.6,4.2,224,2944,1019.18
2005-08-08 22:00,17.4,4.0,4.7,228,2906,1019.36
2005-08-08 23:00,17.2,4.0,4.5,219,2915,1019.42
2005-08-09 00:00,16.6,3.4,3.9,221,2932,1019.42
2005-08-09 01:00,16.5,2.9,3.3,213,2913,1019.60
2005-08-09 02:00,16.6,3.6,4.1,204,2941,1019.72
2005-08-09 03:00,16.9,3.6,4.2,196,2948,1019.78
2005-08-09 04:00,16.6,4.1,4.6,194,2945,1019.90
2005-08-09 05:00,16.7,4.3,4.8,195,2945,1019.90
2005-08-09 06:00,16.9,4.5,5.3,205,2953,1019.60
2005-08-09 07:00,16.8,3.7,4.3,212,2949,1019.42
2005-08-09 08:00,16.9,4.4,4.8,216,2943,1019.48
2005-08-09 09:00,16.7,3.4,3.9,222,2937,1019.54